EN

Hourly Weather Dzhusinsk

Today, 20 October, Tuesday

Time Temperature Precipitation Wind Pressure Humidity
00:00 +11°C° 0 mm 4 mps 731 mmHg 33%
01:00 +10°C° 0 mm 4 mps 731 mmHg 34%
02:00 +10°C° 0 mm 4 mps 731 mmHg 35%
03:00 +10°C° 0 mm 4 mps 730 mmHg 36%
04:00 +10°C° 0 mm 4 mps 730 mmHg 37%
05:00 +8°C° 0 mm 4 mps 730 mmHg 38%
06:00 +8°C° 0 mm 4 mps 729 mmHg 39%
07:00 +7°C° 0 mm 4 mps 729 mmHg 40%
08:00 +9°C° 0 mm 5 mps 729 mmHg 36%
09:00 +10°C° 0 mm 6 mps 728 mmHg 32%
10:00 +13°C° 0 mm 6 mps 728 mmHg 28%
11:00 +14°C° 0 mm 6 mps 728 mmHg 26%
12:00 +15°C° 0 mm 6 mps 727 mmHg 24%
13:00 +16°C° 0 mm 7 mps 726 mmHg 22%
14:00 +16°C° 0 mm 6 mps 726 mmHg 23%
15:00 +15°C° 0 mm 6 mps 726 mmHg 24%
16:00 +15°C° 0 mm 5 mps 726 mmHg 25%
17:00 +14°C° 0 mm 4 mps 726 mmHg 27%
18:00 +13°C° 0 mm 4 mps 726 mmHg 30%
19:00 +11°C° 0 mm 3 mps 726 mmHg 32%
20:00 +10°C° 0 mm 3 mps 726 mmHg 45%
21:00 +9°C° 0 mm 3 mps 727 mmHg 57%
22:00 +8°C° 0 mm 3 mps 727 mmHg 70%
23:00 +6°C° 0 mm 4 mps 727 mmHg 70%

Tomorrow, 21 October, Wednesday

Time Temperature Precipitation Wind Pressure Humidity
00:00 +6°C° 0 mm 5 mps 727 mmHg 69%
01:00 +5°C° 0 mm 6 mps 727 mmHg 69%
02:00 +4°C° 0 mm 6 mps 727 mmHg 68%
03:00 +3°C° 0 mm 6 mps 728 mmHg 67%
04:00 +2°C° 0 mm 5 mps 728 mmHg 66%
05:00 +1°C° 0 mm 5 mps 728 mmHg 68%
06:00 +1°C° 0 mm 4 mps 728 mmHg 70%
07:00 0°C° 0 mm 4 mps 728 mmHg 72%
08:00 +1°C° 0 mm 4 mps 728 mmHg 64%
09:00 +3°C° 0 mm 5 mps 728 mmHg 57%
10:00 +4°C° 0 mm 6 mps 728 mmHg 49%
11:00 +5°C° 0 mm 6 mps 728 mmHg 46%
12:00 +5°C° 0 mm 6 mps 728 mmHg 42%
13:00 +6°C° 0 mm 7 mps 727 mmHg 38%
14:00 +5°C° 0 mm 7 mps 727 mmHg 38%
15:00 +5°C° 0 mm 7 mps 727 mmHg 38%
16:00 +5°C° 0 mm 7 mps 727 mmHg 38%
17:00 +4°C° 0.1 mm 6 mps 727 mmHg 43%
18:00 +3°C° 0.1 mm 6 mps 728 mmHg 48%
19:00 +2°C° 0.1 mm 5 mps 728 mmHg 53%
20:00 +1°C° 0 mm 5 mps 728 mmHg 58%
21:00 +1°C° 0 mm 5 mps 728 mmHg 63%
22:00 0°C° 0 mm 5 mps 728 mmHg 68%
23:00 0°C° 0 mm 5 mps 728 mmHg 72%

Day after tomorrow, 22 October, Thursday

Time Temperature Precipitation Wind Pressure Humidity
00:00 -1°C° 0 mm 5 mps 727 mmHg 75%
01:00 -2°C° 0 mm 5 mps 727 mmHg 78%
02:00 -2°C° 0.1 mm 5 mps 728 mmHg 81%
03:00 -2°C° 0.1 mm 5 mps 728 mmHg 84%
04:00 -2°C° 0.1 mm 5 mps 728 mmHg 87%
05:00 -3°C° 0 mm 6 mps 728 mmHg 84%
06:00 -4°C° 0 mm 6 mps 728 mmHg 81%
07:00 -4°C° 0 mm 6 mps 729 mmHg 78%
08:00 -4°C° 0 mm 6 mps 729 mmHg 69%
09:00 -3°C° 0 mm 7 mps 729 mmHg 60%
10:00 -3°C° 0 mm 7 mps 730 mmHg 51%
11:00 -2°C° 0 mm 7 mps 730 mmHg 49%
12:00 -2°C° 0 mm 7 mps 730 mmHg 47%
13:00 -1°C° 0 mm 6 mps 730 mmHg 46%
14:00 -1°C° 0 mm 6 mps 730 mmHg 47%
15:00 -2°C° 0 mm 6 mps 730 mmHg 49%
16:00 -2°C° 0 mm 6 mps 730 mmHg 50%
17:00 -3°C° 0 mm 6 mps 731 mmHg 53%
18:00 -2°C° 0 mm 5 mps 731 mmHg 57%
19:00 -4°C° 0 mm 5 mps 731 mmHg 60%
20:00 -4°C° 0 mm 4 mps 731 mmHg 64%
21:00 -4°C° 0 mm 4 mps 731 mmHg 68%
22:00 -5°C° 0 mm 4 mps 731 mmHg 71%
23:00 -5°C° 0 mm 4 mps 732 mmHg 74%

23 October, Friday

Time Temperature Precipitation Wind Pressure Humidity
00:00 -5°C° 0 mm 4 mps 732 mmHg 77%
01:00 -7°C° 0 mm 4 mps 732 mmHg 80%
02:00 -7°C° 0 mm 4 mps 732 mmHg 82%
03:00 -7°C° 0 mm 4 mps 732 mmHg 84%
04:00 -6°C° 0 mm 3 mps 732 mmHg 86%
05:00 -7°C° 0 mm 3 mps 732 mmHg 87%
06:00 -7°C° 0 mm 3 mps 733 mmHg 88%
07:00 -7°C° 0 mm 3 mps 733 mmHg 89%
08:00 -7°C° 0 mm 4 mps 733 mmHg 79%
09:00 -5°C° 0 mm 5 mps 733 mmHg 70%
10:00 -4°C° 0 mm 5 mps 734 mmHg 60%
11:00 -2°C° 0 mm 5 mps 734 mmHg 56%
12:00 -1°C° 0 mm 5 mps 734 mmHg 51%
13:00 0°C° 0 mm 5 mps 734 mmHg 47%
14:00 -1°C° 0 mm 4 mps 735 mmHg 47%
15:00 -1°C° 0 mm 4 mps 735 mmHg 48%
16:00 -1°C° 0 mm 4 mps 735 mmHg 48%
17:00 -2°C° 0 mm 4 mps 735 mmHg 54%
18:00 -2°C° 0 mm 3 mps 736 mmHg 60%
19:00 -4°C° 0 mm 3 mps 736 mmHg 65%
20:00 -4°C° 0 mm 3 mps 736 mmHg 67%
21:00 -4°C° 0 mm 2 mps 736 mmHg 70%
22:00 -4°C° 0 mm 2 mps 737 mmHg 72%
23:00 -2°C° 0 mm 1 mps 737 mmHg 73%

24 October, Saturday

Time Temperature Precipitation Wind Pressure Humidity
00:00 -2°C° 0 mm 1 mps 737 mmHg 74%
01:00 -3°C° 0 mm 1 mps 737 mmHg 75%
02:00 -5°C° 0 mm 2 mps 737 mmHg 75%
03:00 -5°C° 0 mm 2 mps 737 mmHg 75%
04:00 -4°C° 0 mm 2 mps 737 mmHg 75%
05:00 -5°C° 0 mm 3 mps 737 mmHg 73%
06:00 -5°C° 0 mm 3 mps 737 mmHg 71%
07:00 -5°C° 0 mm 3 mps 737 mmHg 69%
08:00 -4°C° 0 mm 4 mps 737 mmHg 61%
09:00 -2°C° 0 mm 5 mps 737 mmHg 53%
10:00 -1°C° 0 mm 6 mps 736 mmHg 44%
11:00 0°C° 0 mm 7 mps 736 mmHg 45%
12:00 +1°C° 0 mm 8 mps 735 mmHg 45%
13:00 +4°C° 0 mm 8 mps 735 mmHg 46%
14:00 +2°C° 0.1 mm 9 mps 734 mmHg 55%
15:00 +2°C° 0.1 mm 9 mps 733 mmHg 63%
16:00 +2°C° 0.1 mm 9 mps 733 mmHg 72%
17:00 +2°C° 0.9 mm 9 mps 732 mmHg 77%
18:00 +3°C° 0.9 mm 10 mps 732 mmHg 82%
19:00 +3°C° 0.9 mm 10 mps 731 mmHg 88%
20:00 +5°C° 1.5 mm 10 mps 731 mmHg 89%
21:00 +6°C° 1.5 mm 11 mps 730 mmHg 90%
22:00 +7°C° 1.5 mm 11 mps 730 mmHg 91%
23:00 +7°C° 0.8 mm 11 mps 730 mmHg 88%

25 October, Sunday

Time Temperature Precipitation Wind Pressure Humidity
00:00 +7°C° 0.8 mm 11 mps 730 mmHg 84%
01:00 +7°C° 0.8 mm 12 mps 730 mmHg 80%
02:00 +7°C° 0 mm 11 mps 730 mmHg 74%
03:00 +7°C° 0 mm 10 mps 730 mmHg 68%
04:00 +7°C° 0 mm 10 mps 731 mmHg 62%
05:00 +7°C° 0 mm 9 mps 731 mmHg 61%
06:00 +7°C° 0 mm 8 mps 731 mmHg 60%
07:00 +8°C° 0 mm 7 mps 732 mmHg 58%
08:00 +8°C° 0 mm 7 mps 732 mmHg 56%
09:00 +9°C° 0 mm 7 mps 732 mmHg 53%
10:00 +9°C° 0 mm 8 mps 732 mmHg 51%
11:00 +9°C° 0.1 mm 7 mps 732 mmHg 56%
12:00 +8°C° 0.1 mm 7 mps 732 mmHg 60%
13:00 +8°C° 0.1 mm 6 mps 732 mmHg 65%
14:00 +8°C° 0 mm 6 mps 732 mmHg 60%
15:00 +9°C° 0 mm 5 mps 732 mmHg 55%
16:00 +10°C° 0 mm 5 mps 732 mmHg 50%
17:00 +9°C° 0 mm 6 mps 732 mmHg 51%
18:00 +9°C° 0 mm 6 mps 732 mmHg 52%
19:00 +8°C° 0 mm 6 mps 731 mmHg 53%
20:00 +8°C° 0 mm 7 mps 731 mmHg 52%
21:00 +8°C° 0 mm 7 mps 731 mmHg 50%
22:00 +6°C° 0 mm 7 mps 731 mmHg 49%
23:00 +6°C° 0 mm 7 mps 731 mmHg 50%

26 October, Monday

Time Temperature Precipitation Wind Pressure Humidity
00:00 +6°C° 0 mm 7 mps 731 mmHg 51%
01:00 +6°C° 0 mm 7 mps 731 mmHg 51%
02:00 +6°C° 0 mm 7 mps 730 mmHg 55%
03:00 +5°C° 0 mm 7 mps 730 mmHg 59%
04:00 +5°C° 0 mm 7 mps 730 mmHg 64%
05:00 +5°C° 0 mm 7 mps 730 mmHg 64%
06:00 +6°C° 0 mm 7 mps 729 mmHg 65%
07:00 +6°C° 0 mm 8 mps 729 mmHg 66%
08:00 +7°C° 0.1 mm 8 mps 729 mmHg 63%
09:00 +7°C° 0.1 mm 8 mps 728 mmHg 60%
10:00 +7°C° 0.1 mm 9 mps 728 mmHg 57%
11:00 +10°C° 0 mm 9 mps 728 mmHg 52%
12:00 +11°C° 0 mm 9 mps 728 mmHg 47%
13:00 +12°C° 0 mm 10 mps 727 mmHg 42%
14:00 +12°C° 0 mm 9 mps 727 mmHg 42%
15:00 +12°C° 0 mm 8 mps 727 mmHg 42%
16:00 +11°C° 0 mm 7 mps 727 mmHg 41%
17:00 +10°C° 0.1 mm 7 mps 727 mmHg 49%
18:00 +9°C° 0.1 mm 6 mps 727 mmHg 57%
19:00 +8°C° 0.1 mm 6 mps 727 mmHg 65%
20:00 +8°C° 0 mm 6 mps 726 mmHg 66%
21:00 +8°C° 0 mm 5 mps 726 mmHg 66%
22:00 +8°C° 0 mm 4 mps 726 mmHg 67%
23:00 +7°C° 0.6 mm 4 mps 726 mmHg 74%
Show more